This is the latest recevied weather packets stored in our database for station/object HB9FHL-13. If no packets are shown the sender has not sent any weather packets the latest 10 day(s).
| Time | Temp. | Humidity | Pressure | Rain* | Wind** | Luminosity | Snow |
|---|---|---|---|---|---|---|---|
| 1777554964 | 15.56° C | - | 1001.3 hPa | 0 mm | - | - | - |
| 1777554663 | 16.11° C | - | 1016.5 hPa | 0 mm | - | - | - |
| 1777554363 | 15° C | - | 1030.8 hPa | 0 mm | - | - | - |
| 1777554062 | 14.44° C | - | 1023.3 hPa | 0 mm | - | - | - |
| 1777553762 | 15° C | - | 1017.2 hPa | 0 mm | - | - | - |
| 1777553461 | 14.44° C | - | 1034.3 hPa | 0 mm | - | - | - |
| 1777553161 | 13.89° C | - | 1019.2 hPa | 0 mm | - | - | - |
| 1777552860 | 14.44° C | - | 1020.4 hPa | 0 mm | - | - | - |
| 1777552560 | 13.89° C | - | 1019.9 hPa | 0 mm | - | - | - |
| 1777552259 | 13.33° C | - | 1016.3 hPa | 0 mm | - | - | - |
| 1777551959 | 13.89° C | - | 1026.9 hPa | 0 mm | - | - | - |
| 1777551658 | 13.89° C | - | 1020.4 hPa | 0 mm | - | - | - |
| 1777551358 | 14.44° C | - | 1029 hPa | 0 mm | - | - | - |
| 1777551058 | 13.89° C | - | 1021.8 hPa | 0 mm | - | - | - |
| 1777550754 | 13.33° C | - | 1020.1 hPa | 0 mm | - | - | - |
| 1777550453 | 12.78° C | - | 1022.1 hPa | 0 mm | - | - | - |
| 1777550152 | 13.33° C | - | 1018.7 hPa | 0 mm | - | - | - |
| 1777549550 | 13.33° C | - | 1021.4 hPa | 0 mm | - | - | - |
| 1777549248 | 13.33° C | - | 1019.2 hPa | 0 mm | - | - | - |
| 1777548946 | 13.33° C | - | 1020.5 hPa | 0 mm | - | - | - |
| 1777548646 | 12.78° C | - | 1027.2 hPa | 0 mm | - | - | - |
| 1777548347 | 12.78° C | - | 1019.5 hPa | 0 mm | - | - | - |
| 1777548044 | 12.22° C | - | 1023.1 hPa | 0 mm | - | - | - |
| 1777547743 | 13.33° C | - | 1012.8 hPa | 0 mm | - | - | - |
| 1777547443 | 11.67° C | - | 1022.7 hPa | 0 mm | - | - | - |
* Rain since midnight (hover to see other rain measurements)
** Current wind speed in m/s (hover to see current wind gust speed)